| time (UTC) | temp F | wind direction | speed MPH | gust MPH | rain 1hr in | rain 24hr in | rain mn in | humidity % | barometer mb |
| 20260507134208 | 62 | 95 | 0.0 | 1.0 | 0.00 | 0.00 | 0.00 | 46 | 1010.1 |
| 20260507133431 | 61 | 95 | 0.0 | 0.0 | 0.00 | 0.00 | 0.00 | 46 | 1009.9 |
| 20260507132929 | 61 | 95 | 0.0 | 0.0 | 0.00 | 0.00 | 0.00 | 46 | 1009.9 |
| 20260507132429 | 61 | 95 | 0.0 | 0.0 | 0.00 | 0.00 | 0.00 | 45 | 1009.9 |
| 20260507131933 | 61 | 95 | 0.0 | 1.0 | 0.00 | 0.00 | 0.00 | 44 | 1009.9 |
| 20260507131702 | 61 | 95 | 0.0 | 1.0 | 0.00 | 0.00 | 0.00 | 44 | 1009.9 |
| 20260507130931 | 61 | 99 | 0.0 | 0.0 | 0.00 | 0.00 | 0.00 | 43 | 1009.9 |
| 20260507130429 | 61 | 99 | 0.0 | 0.0 | 0.00 | 0.00 | 0.00 | 43 | 1009.8 |
| 20260507125929 | 61 | 188 | 0.0 | 1.0 | 0.00 | 0.00 | 0.00 | 43 | 1009.8 |
| 20260507125429 | 60 | 188 | 0.0 | 1.0 | 0.00 | 0.00 | 0.00 | 43 | 1009.8 |
| 20260507124935 | 60 | 192 | 0.0 | 0.0 | 0.00 | 0.00 | 0.00 | 42 | 1009.8 |
| 20260507124656 | 60 | 192 | 0.0 | 2.0 | 0.00 | 0.00 | 0.00 | 43 | 1009.7 |
| 20260507124426 | 60 | 192 | 0.0 | 2.0 | 0.00 | 0.00 | 0.00 | 43 | 1009.6 |
| 20260507123430 | 60 | 192 | 0.0 | 1.0 | 0.00 | 0.00 | 0.00 | 43 | 1009.7 |
| 20260507122931 | 60 | 192 | 0.0 | 0.0 | 0.00 | 0.00 | 0.00 | 43 | 1009.6 |
| 20260507122429 | 60 | 192 | 0.0 | 0.0 | 0.00 | 0.00 | 0.00 | 44 | 1009.6 |
| 20260507121935 | 60 | 192 | 0.0 | 0.0 | 0.00 | 0.00 | 0.00 | 44 | 1009.5 |
| 20260507121430 | 60 | 192 | 0.0 | 5.0 | 0.00 | 0.00 | 0.00 | 43 | 1009.6 |
| 20260507120929 | 60 | 192 | 0.0 | 5.0 | 0.00 | 0.00 | 0.00 | 44 | 1009.5 |
| 20260507120649 | 60 | 42 | 0.0 | 4.0 | 0.00 | 0.00 | 0.00 | 43 | 1009.5 |
| 20260507120432 | 60 | 42 | 0.0 | 4.0 | 0.00 | 0.00 | 0.00 | 43 | 1009.5 |
| 20260507115923 | 60 | 42 | 0.0 | 4.0 | 0.00 | 0.00 | 0.00 | 44 | 1009.5 |
| 20260507115422 | 60 | 269 | 0.0 | 0.0 | 0.00 | 0.00 | 0.00 | 44 | 1009.5 |
| 20260507114911 | 61 | 269 | 0.0 | 0.0 | 0.00 | 0.00 | 0.00 | 44 | 1009.6 |
| 20260507114630 | 61 | 269 | 0.0 | 0.0 | 0.00 | 0.00 | 0.00 | 44 | 1009.7 |
| 20260507113907 | 61 | 269 | 0.0 | 0.0 | 0.00 | 0.00 | 0.00 | 43 | 1009.6 |
| 20260507113406 | 61 | 269 | 0.0 | 0.0 | 0.00 | 0.00 | 0.00 | 44 | 1009.6 |
| 20260507112904 | 61 | 269 | 0.0 | 0.0 | 0.00 | 0.00 | 0.00 | 44 | 1009.7 |
| 20260507112405 | 61 | 269 | 0.0 | 0.0 | 0.00 | 0.00 | 0.00 | 43 | 1009.7 |
| 20260507111905 | 61 | 269 | 0.0 | 0.0 | 0.00 | 0.00 | 0.00 | 43 | 1009.8 |
| 20260507111406 | 61 | 269 | 0.0 | 0.0 | 0.00 | 0.00 | 0.00 | 43 | 1009.8 |
| 20260507110901 | 61 | 269 | 0.0 | 0.0 | 0.00 | 0.00 | 0.00 | 43 | 1009.7 |
| 20260507110402 | 61 | 269 | 0.0 | 0.0 | 0.00 | 0.00 | 0.00 | 43 | 1009.8 |
| 20260507105901 | 62 | 269 | 0.0 | 0.0 | 0.00 | 0.00 | 0.00 | 43 | 1009.9 |
| 20260507105409 | 62 | 269 | 0.0 | 0.0 | 0.00 | 0.00 | 0.00 | 44 | 1009.9 |
| 20260507104903 | 62 | 269 | 0.0 | 0.0 | 0.00 | 0.00 | 0.00 | 43 | 1009.9 |
| 20260507104403 | 62 | 269 | 0.0 | 0.0 | 0.00 | 0.00 | 0.00 | 43 | 1010.0 |
| 20260507103902 | 62 | 269 | 0.0 | 0.0 | 0.00 | 0.00 | 0.00 | 42 | 1010.0 |
| 20260507103412 | 62 | 269 | 0.0 | 0.0 | 0.00 | 0.00 | 0.00 | 42 | 1010.1 |
| 20260507102907 | 62 | 269 | 0.0 | 0.0 | 0.00 | 0.00 | 0.00 | 42 | 1010.2 |
| 20260507102405 | 62 | 269 | 0.0 | 0.0 | 0.00 | 0.00 | 0.00 | 41 | 1010.1 |
| 20260507101902 | 63 | 269 | 0.0 | 0.0 | 0.00 | 0.00 | 0.00 | 41 | 1010.1 |
| 20260507101403 | 63 | 269 | 0.0 | 0.0 | 0.00 | 0.00 | 0.00 | 41 | 1010.2 |
| 20260507100901 | 63 | 269 | 0.0 | 0.0 | 0.00 | 0.00 | 0.00 | 40 | 1010.2 |
| 20260507100408 | 63 | 269 | 0.0 | 0.0 | 0.00 | 0.00 | 0.00 | 39 | 1010.2 |
| 20260507095903 | 63 | 269 | 0.0 | 0.0 | 0.00 | 0.00 | 0.00 | 39 | 1010.3 |
| 20260507095406 | 63 | 269 | 0.0 | 0.0 | 0.00 | 0.00 | 0.00 | 39 | 1010.2 |
| 20260507094901 | 64 | 269 | 0.0 | 0.0 | 0.00 | 0.00 | 0.00 | 38 | 1010.2 |
| 20260507094404 | 64 | 269 | 0.0 | 0.0 | 0.00 | 0.00 | 0.00 | 38 | 1010.3 |
| 20260507093901 | 64 | 269 | 0.0 | 0.0 | 0.00 | 0.00 | 0.00 | 37 | 1010.4 |
| 20260507093406 | 64 | 269 | 0.0 | 0.0 | 0.00 | 0.00 | 0.00 | 37 | 1010.4 |
| 20260507093357 | 64 | 269 | 0.0 | 0.0 | 0.00 | 0.00 | 0.00 | 37 | 1010.4 |
| 20260507092404 | 64 | 269 | 0.0 | 0.0 | 0.00 | 0.00 | 0.00 | 37 | 1010.4 |
| 20260507091902 | 65 | 269 | 0.0 | 0.0 | 0.00 | 0.00 | 0.00 | 36 | 1010.4 |
| 20260507091636 | 65 | 269 | 0.0 | 0.0 | 0.00 | 0.00 | 0.00 | 36 | 1010.4 |
| 20260507090902 | 65 | 269 | 0.0 | 0.0 | 0.00 | 0.00 | 0.00 | 36 | 1010.4 |
| 20260507090402 | 65 | 269 | 0.0 | 0.0 | 0.00 | 0.00 | 0.00 | 36 | 1010.4 |
| 20260507085904 | 65 | 269 | 0.0 | 0.0 | 0.00 | 0.00 | 0.00 | 36 | 1010.5 |
| 20260507085402 | 65 | 269 | 0.0 | 0.0 | 0.00 | 0.00 | 0.00 | 36 | 1010.5 |
| 20260507084902 | 65 | 269 | 0.0 | 0.0 | 0.00 | 0.00 | 0.00 | 36 | 1010.5 |
| 20260507084406 | 66 | 269 | 0.0 | 0.0 | 0.00 | 0.00 | 0.00 | 36 | 1010.6 |
| 20260507083903 | 66 | 269 | 0.0 | 0.0 | 0.00 | 0.00 | 0.00 | 36 | 1010.6 |
| 20260507083403 | 66 | 269 | 0.0 | 0.0 | 0.00 | 0.00 | 0.00 | 36 | 1010.7 |
| 20260507082901 | 66 | 269 | 0.0 | 0.0 | 0.00 | 0.00 | 0.00 | 36 | 1010.7 |
| 20260507082409 | 67 | 269 | 0.0 | 0.0 | 0.00 | 0.00 | 0.00 | 34 | 1010.8 |
| 20260507081901 | 67 | 269 | 0.0 | 0.0 | 0.00 | 0.00 | 0.00 | 34 | 1010.8 |
| 20260507081402 | 67 | 269 | 0.0 | 0.0 | 0.00 | 0.00 | 0.00 | 34 | 1010.8 |
| 20260507081129 | 67 | 269 | 0.0 | 0.0 | 0.00 | 0.00 | 0.00 | 33 | 1010.8 |
| 20260507080409 | 67 | 269 | 0.0 | 0.0 | 0.00 | 0.00 | 0.00 | 33 | 1010.8 |
| 20260507075906 | 68 | 269 | 0.0 | 0.0 | 0.00 | 0.00 | 0.00 | 33 | 1010.8 |
| 20260507075404 | 68 | 269 | 0.0 | 0.0 | 0.00 | 0.00 | 0.00 | 32 | 1010.8 |
| 20260507074836 | 68 | 269 | 0.0 | 0.0 | 0.00 | 0.00 | 0.00 | 31 | 1010.8 |
| 20260507074330 | 69 | 269 | 0.0 | 0.0 | 0.00 | 0.00 | 0.00 | 32 | 1010.8 |
| 20260507074042 | 69 | 269 | 0.0 | 0.0 | 0.00 | 0.00 | 0.00 | 32 | 1010.8 |
| 20260507073538 | 69 | 269 | 0.0 | 0.0 | 0.00 | 0.00 | 0.00 | 30 | 1010.9 |
| 20260507073035 | 69 | 269 | 0.0 | 0.0 | 0.00 | 0.00 | 0.00 | 30 | 1010.8 |
| 20260507072308 | 69 | 269 | 0.0 | 1.0 | 0.00 | 0.00 | 0.00 | 30 | 1010.8 |
| 20260507071803 | 69 | 269 | 0.0 | 1.0 | 0.00 | 0.00 | 0.00 | 29 | 1010.7 |
| 20260507071301 | 69 | 269 | 0.0 | 2.0 | 0.00 | 0.00 | 0.00 | 30 | 1010.8 |
| 20260507070807 | 69 | 269 | 0.0 | 2.0 | 0.00 | 0.00 | 0.00 | 30 | 1010.8 |
| 20260507070306 | 69 | 269 | 0.0 | 0.0 | 0.00 | 0.00 | 0.00 | 30 | 1010.8 |
| 20260507070028 | 69 | 269 | 0.0 | 1.0 | 0.00 | 0.00 | 0.00 | 30 | 1010.9 |
| 20260507065301 | 69 | 269 | 0.0 | 2.0 | 0.00 | 0.00 | 0.00 | 30 | 1010.9 |
| 20260507064806 | 69 | 269 | 0.0 | 2.0 | 0.00 | 0.00 | 0.00 | 30 | 1010.8 |
| 20260507064302 | 69 | 269 | 0.0 | 1.0 | 0.00 | 0.00 | 0.00 | 30 | 1010.7 |
| 20260507063801 | 69 | 269 | 0.0 | 1.0 | 0.00 | 0.00 | 0.00 | 30 | 1010.7 |
| 20260507063305 | 69 | 269 | 0.0 | 1.0 | 0.00 | 0.00 | 0.00 | 31 | 1010.7 |
| 20260507062808 | 69 | 269 | 0.0 | 2.0 | 0.00 | 0.00 | 0.00 | 30 | 1010.7 |
| 20260507062306 | 69 | 269 | 0.0 | 2.0 | 0.00 | 0.00 | 0.00 | 30 | 1010.6 |
| 20260507061809 | 69 | 269 | 0.0 | 2.0 | 0.00 | 0.00 | 0.00 | 30 | 1010.7 |
| 20260507061308 | 69 | 269 | 0.0 | 1.0 | 0.00 | 0.00 | 0.00 | 31 | 1010.7 |
| 20260507060805 | 69 | 268 | 0.0 | 1.0 | 0.00 | 0.00 | 0.00 | 31 | 1010.6 |
| 20260507060305 | 69 | 268 | 0.0 | 1.0 | 0.00 | 0.00 | 0.00 | 32 | 1010.7 |
| 20260507055801 | 69 | 268 | 0.0 | 1.0 | 0.00 | 0.00 | 0.00 | 31 | 1010.6 |
| 20260507055752 | 69 | 268 | 0.0 | 1.0 | 0.00 | 0.00 | 0.00 | 31 | 1010.7 |
| 20260507055034 | 69 | 268 | 0.0 | 1.0 | 0.00 | 0.00 | 0.00 | 30 | 1010.7 |
| 20260507054308 | 70 | 268 | 0.0 | 0.0 | 0.00 | 0.00 | 0.00 | 31 | 1010.7 |
| 20260507053805 | 70 | 268 | 0.0 | 0.0 | 0.00 | 0.00 | 0.00 | 31 | 1010.6 |
| 20260507053306 | 70 | 268 | 0.0 | 0.0 | 0.00 | 0.00 | 0.00 | 31 | 1010.7 |
| 20260507052802 | 70 | 268 | 0.0 | 0.0 | 0.00 | 0.00 | 0.00 | 31 | 1010.7 |
| 20260507052758 | 70 | 268 | 0.0 | 0.0 | 0.00 | 0.00 | 0.00 | 30 | 1010.7 |
| 20260507051800 | 71 | 268 | 0.0 | 0.0 | 0.00 | 0.00 | 0.00 | 30 | 1010.7 |
| 20260507051302 | 71 | 268 | 0.0 | 0.0 | 0.00 | 0.00 | 0.00 | 31 | 1010.7 |
| 20260507050802 | 71 | 268 | 0.0 | 0.0 | 0.00 | 0.00 | 0.00 | 31 | 1010.7 |
| 20260507050301 | 71 | 268 | 0.0 | 0.0 | 0.00 | 0.00 | 0.00 | 30 | 1010.7 |
| 20260507045806 | 71 | 268 | 0.0 | 0.0 | 0.00 | 0.00 | 0.00 | 30 | 1010.7 |
| 20260507045306 | 71 | 268 | 0.0 | 0.0 | 0.00 | 0.00 | 0.00 | 30 | 1010.6 |
| 20260507045026 | 71 | 268 | 0.0 | 0.0 | 0.00 | 0.00 | 0.00 | 30 | 1010.6 |
| 20260507044759 | 71 | 268 | 0.0 | 0.0 | 0.00 | 0.00 | 0.00 | 30 | 1010.6 |
| 20260507043804 | 71 | 268 | 0.0 | 0.0 | 0.00 | 0.00 | 0.00 | 30 | 1010.5 |
| 20260507043305 | 71 | 268 | 0.0 | 0.0 | 0.00 | 0.00 | 0.00 | 30 | 1010.5 |
| 20260507042806 | 71 | 268 | 0.0 | 0.0 | 0.00 | 0.00 | 0.00 | 30 | 1010.4 |
| 20260507042307 | 72 | 268 | 0.0 | 0.0 | 0.00 | 0.00 | 0.00 | 30 | 1010.3 |
| 20260507041807 | 72 | 268 | 0.0 | 0.0 | 0.00 | 0.00 | 0.00 | 30 | 1010.3 |
| 20260507041310 | 72 | 268 | 0.0 | 0.0 | 0.00 | 0.00 | 0.00 | 30 | 1010.2 |
| 20260507040804 | 73 | 268 | 0.0 | 0.0 | 0.00 | 0.00 | 0.00 | 30 | 1010.1 |
| 20260507040251 | 73 | 268 | 0.0 | 0.0 | 0.00 | 0.00 | 0.00 | 30 | 1010.1 |
| 20260507040020 | 73 | 268 | 0.0 | 0.0 | 0.00 | 0.00 | 0.00 | 30 | 1010.0 |
| 20260507035230 | 73 | 268 | 0.0 | 0.0 | 0.00 | 0.00 | 0.00 | 30 | 1010.0 |
| 20260507034730 | 74 | 268 | 0.0 | 0.0 | 0.00 | 0.00 | 0.00 | 30 | 1009.9 |
| 20260507034234 | 74 | 268 | 0.0 | 0.0 | 0.00 | 0.00 | 0.00 | 29 | 1009.8 |
| 20260507033730 | 74 | 268 | 0.0 | 0.0 | 0.00 | 0.00 | 0.00 | 29 | 1009.8 |
| 20260507033229 | 75 | 268 | 0.0 | 0.0 | 0.00 | 0.00 | 0.00 | 29 | 1009.8 |
| 20260507032732 | 75 | 268 | 0.0 | 0.0 | 0.00 | 0.00 | 0.00 | 29 | 1009.7 |
| 20260507032236 | 76 | 268 | 0.0 | 0.0 | 0.00 | 0.00 | 0.00 | 28 | 1009.6 |
| 20260507031955 | 76 | 268 | 0.0 | 0.0 | 0.00 | 0.00 | 0.00 | 28 | 1009.6 |
| 20260507031232 | 76 | 268 | 0.0 | 0.0 | 0.00 | 0.00 | 0.00 | 27 | 1009.6 |
| 20260507030729 | 76 | 268 | 0.0 | 0.0 | 0.00 | 0.00 | 0.00 | 27 | 1009.4 |
| 20260507030237 | 77 | 268 | 0.0 | 0.0 | 0.00 | 0.00 | 0.00 | 26 | 1009.3 |
| 20260507030001 | 77 | 268 | 0.0 | 0.0 | 0.00 | 0.00 | 0.00 | 26 | 1009.3 |
| 20260507025229 | 78 | 268 | 0.0 | 0.0 | 0.00 | 0.00 | 0.00 | 26 | 1009.2 |
| 20260507024732 | 78 | 268 | 0.0 | 0.0 | 0.00 | 0.00 | 0.00 | 25 | 1009.2 |
| 20260507024232 | 78 | 268 | 0.0 | 0.0 | 0.00 | 0.00 | 0.00 | 25 | 1009.1 |
| 20260507023731 | 79 | 268 | 0.0 | 0.0 | 0.00 | 0.00 | 0.00 | 24 | 1009.0 |
| 20260507023457 | 79 | 268 | 0.0 | 0.0 | 0.00 | 0.00 | 0.00 | 24 | 1009.0 |
| 20260507022732 | 79 | 268 | 0.0 | 0.0 | 0.00 | 0.00 | 0.00 | 23 | 1008.9 |
| 20260507022233 | 79 | 268 | 0.0 | 0.0 | 0.00 | 0.00 | 0.00 | 23 | 1008.9 |
| 20260507021955 | 79 | 268 | 0.0 | 0.0 | 0.00 | 0.00 | 0.00 | 23 | 1008.9 |
| 20260507021230 | 80 | 268 | 0.0 | 1.0 | 0.00 | 0.00 | 0.00 | 22 | 1008.9 |
| 20260507021000 | 80 | 268 | 0.0 | 1.0 | 0.00 | 0.00 | 0.00 | 22 | 1008.9 |
| 20260507020239 | 81 | 268 | 0.0 | 3.0 | 0.00 | 0.00 | 0.00 | 21 | 1008.9 |
| 20260507015729 | 81 | 268 | 0.0 | 4.0 | 0.00 | 0.00 | 0.00 | 21 | 1008.8 |
| 20260507015233 | 81 | 271 | 1.0 | 4.0 | 0.00 | 0.00 | 0.00 | 21 | 1008.8 |
| 20260507014729 | 82 | 333 | 0.0 | 3.0 | 0.00 | 0.00 | 0.00 | 21 | 1008.7 |
| 20260507014222 | 82 | 251 | 0.0 | 5.0 | 0.00 | 0.00 | 0.00 | 21 | 1008.8 |
| 20260507013724 | 83 | 266 | 1.0 | 5.0 | 0.00 | 0.00 | 0.00 | 20 | 1008.8 |
| 20260507013222 | 83 | 302 | 1.0 | 4.0 | 0.00 | 0.00 | 0.00 | 20 | 1008.7 |
| 20260507012722 | 83 | 267 | 1.0 | 4.0 | 0.00 | 0.00 | 0.00 | 20 | 1008.7 |
| 20260507012207 | 83 | 248 | 1.0 | 4.0 | 0.00 | 0.00 | 0.00 | 20 | 1008.6 |
| 20260507011708 | 84 | 266 | 2.0 | 7.0 | 0.00 | 0.00 | 0.00 | 20 | 1008.6 |
| 20260507011208 | 84 | 234 | 2.0 | 7.0 | 0.00 | 0.00 | 0.00 | 20 | 1008.6 |
| 20260507010708 | 84 | 215 | 1.0 | 5.0 | 0.00 | 0.00 | 0.00 | 20 | 1008.6 |
| 20260507010205 | 84 | 215 | 3.0 | 9.0 | 0.00 | 0.00 | 0.00 | 19 | 1008.5 |
| 20260507005704 | 84 | 214 | 2.0 | 9.0 | 0.00 | 0.00 | 0.00 | 19 | 1008.6 |
| 20260507005204 | 85 | 243 | 2.0 | 8.0 | 0.00 | 0.00 | 0.00 | 19 | 1008.6 |
| 20260507004705 | 85 | 258 | 1.0 | 8.0 | 0.00 | 0.00 | 0.00 | 19 | 1008.6 |
| 20260507004204 | 85 | 237 | 0.0 | 6.0 | 0.00 | 0.00 | 0.00 | 19 | 1008.6 |
| 20260507003702 | 85 | 294 | 1.0 | 4.0 | 0.00 | 0.00 | 0.00 | 19 | 1008.6 |
| 20260507003204 | 85 | 285 | 1.0 | 4.0 | 0.00 | 0.00 | 0.00 | 19 | 1008.6 |
| 20260507002927 | 85 | 238 | 0.0 | 2.0 | 0.00 | 0.00 | 0.00 | 20 | 1008.5 |
| 20260507002206 | 85 | 233 | 1.0 | 6.0 | 0.00 | 0.00 | 0.00 | 19 | 1008.6 |
| 20260507001706 | 85 | 233 | 1.0 | 6.0 | 0.00 | 0.00 | 0.00 | 19 | 1008.6 |
| 20260507001205 | 85 | 224 | 1.0 | 4.0 | 0.00 | 0.00 | 0.00 | 19 | 1008.6 |
| 20260507000647 | 85 | 236 | 1.0 | 4.0 | 0.00 | 0.00 | 0.00 | 19 | 1008.6 |
| 20260507000143 | 85 | 318 | 1.0 | 5.0 | 0.00 | 0.00 | 0.00 | 19 | 1008.6 |
| 20260506235906 | 86 | 303 | 1.0 | 6.0 | 0.00 | 0.00 | 0.00 | 19 | 1008.6 |
| 20260506235136 | 85 | 248 | 2.0 | 7.0 | 0.00 | 0.00 | 0.00 | 20 | 1008.6 |
| 20260506234634 | 85 | 232 | 2.0 | 7.0 | 0.00 | 0.00 | 0.00 | 19 | 1008.6 |
| 20260506234132 | 85 | 249 | 1.0 | 7.0 | 0.00 | 0.00 | 0.00 | 20 | 1008.7 |
| 20260506233630 | 85 | 267 | 2.0 | 7.0 | 0.00 | 0.00 | 0.00 | 20 | 1008.7 |
| 20260506233131 | 85 | 229 | 2.0 | 7.0 | 0.00 | 0.00 | 0.00 | 19 | 1008.7 |
| 20260506232629 | 85 | 207 | 1.0 | 7.0 | 0.00 | 0.00 | 0.00 | 20 | 1008.7 |
| 20260506232129 | 84 | 223 | 0.0 | 4.0 | 0.00 | 0.00 | 0.00 | 20 | 1008.8 |
| 20260506231634 | 84 | 234 | 1.0 | 4.0 | 0.00 | 0.00 | 0.00 | 19 | 1008.8 |
| 20260506231353 | 85 | 331 | 2.0 | 5.0 | 0.00 | 0.00 | 0.00 | 20 | 1008.9 |
| 20260506230900 | 85 | 11 | 1.0 | 5.0 | 0.00 | 0.00 | 0.00 | 20 | 1008.9 |
| 20260506230131 | 86 | 236 | 1.0 | 6.0 | 0.00 | 0.00 | 0.00 | 20 | 1008.9 |
| 20260506225629 | 85 | 239 | 1.0 | 6.0 | 0.00 | 0.00 | 0.00 | 20 | 1009.0 |
| 20260506225129 | 86 | 333 | 1.0 | 4.0 | 0.00 | 0.00 | 0.00 | 20 | 1009.1 |
| 20260506224631 | 86 | 284 | 1.0 | 5.0 | 0.00 | 0.00 | 0.00 | 20 | 1009.1 |
| 20260506224128 | 86 | 219 | 1.0 | 5.0 | 0.00 | 0.00 | 0.00 | 19 | 1009.2 |
| 20260506223900 | 85 | 230 | 1.0 | 7.0 | 0.00 | 0.00 | 0.00 | 20 | 1009.2 |
| 20260506223130 | 85 | 257 | 2.0 | 7.0 | 0.00 | 0.00 | 0.00 | 20 | 1009.3 |
| 20260506222853 | 85 | 253 | 1.0 | 4.0 | 0.00 | 0.00 | 0.00 | 20 | 1009.5 |
| 20260506222839 | 85 | 248 | 1.0 | 5.0 | 0.00 | 0.00 | 0.00 | 20 | 1009.4 |
| 20260506221628 | 85 | 238 | 1.0 | 4.0 | 0.00 | 0.00 | 0.00 | 20 | 1009.6 |
| 20260506221127 | 85 | 259 | 1.0 | 8.0 | 0.00 | 0.00 | 0.00 | 21 | 1009.6 |
| 20260506220631 | 83 | 213 | 2.0 | 8.0 | 0.00 | 0.00 | 0.00 | 20 | 1009.6 |
| 20260506220114 | 84 | 224 | 2.0 | 7.0 | 0.00 | 0.00 | 0.00 | 20 | 1009.7 |
| 20260506215837 | 85 | 232 | 1.0 | 5.0 | 0.00 | 0.00 | 0.00 | 20 | 1009.8 |
| 20260506215116 | 85 | 296 | 1.0 | 8.0 | 0.00 | 0.00 | 0.00 | 21 | 1009.9 |
| 20260506214841 | 85 | 69 | 1.0 | 8.0 | 0.00 | 0.00 | 0.00 | 21 | 1010.0 |
| 20260506214115 | 84 | 336 | 0.0 | 4.0 | 0.00 | 0.00 | 0.00 | 21 | 1010.0 |
| 20260506213615 | 85 | 332 | 1.0 | 5.0 | 0.00 | 0.00 | 0.00 | 21 | 1010.1 |
| 20260506213107 | 84 | 337 | 2.0 | 7.0 | 0.00 | 0.00 | 0.00 | 21 | 1010.3 |
| 20260506212535 | 84 | 332 | 2.0 | 7.0 | 0.00 | 0.00 | 0.00 | 21 | 1010.3 |
| 20260506212030 | 84 | 345 | 2.0 | 7.0 | 0.00 | 0.00 | 0.00 | 22 | 1010.4 |
| 20260506211530 | 84 | 323 | 2.0 | 6.0 | 0.00 | 0.00 | 0.00 | 21 | 1010.5 |
| 20260506211029 | 83 | 315 | 2.0 | 7.0 | 0.00 | 0.00 | 0.00 | 22 | 1010.5 |
| 20260506210757 | 84 | 316 | 2.0 | 7.0 | 0.00 | 0.00 | 0.00 | 21 | 1010.6 |
| 20260506210028 | 82 | 200 | 1.0 | 5.0 | 0.00 | 0.00 | 0.00 | 21 | 1010.8 |
| 20260506205525 | 82 | 238 | 2.0 | 6.0 | 0.00 | 0.00 | 0.00 | 21 | 1010.9 |
| 20260506205235 | 83 | 251 | 1.0 | 6.0 | 0.00 | 0.00 | 0.00 | 21 | 1011.0 |
| 20260506204510 | 82 | 57 | 1.0 | 6.0 | 0.00 | 0.00 | 0.00 | 21 | 1011.0 |
| 20260506204003 | 83 | 30 | 2.0 | 7.0 | 0.00 | 0.00 | 0.00 | 21 | 1011.1 |
| 20260506203504 | 84 | 30 | 3.0 | 9.0 | 0.00 | 0.00 | 0.00 | 21 | 1011.2 |
| 20260506203005 | 83 | 35 | 2.0 | 9.0 | 0.00 | 0.00 | 0.00 | 22 | 1011.2 |
| 20260506202737 | 82 | 290 | 2.0 | 5.0 | 0.00 | 0.00 | 0.00 | 22 | 1011.2 |
| 20260506202006 | 82 | 240 | 1.0 | 5.0 | 0.00 | 0.00 | 0.00 | 22 | 1011.2 |
| 20260506201501 | 83 | 90 | 1.0 | 7.0 | 0.00 | 0.00 | 0.00 | 21 | 1011.3 |
| 20260506201004 | 82 | 32 | 2.0 | 7.0 | 0.00 | 0.00 | 0.00 | 21 | 1011.4 |
| 20260506200735 | 82 | 223 | 2.0 | 6.0 | 0.00 | 0.00 | 0.00 | 23 | 1011.5 |
| 20260506200007 | 81 | 281 | 1.0 | 4.0 | 0.00 | 0.00 | 0.00 | 22 | 1011.5 |
| 20260506195502 | 81 | 18 | 1.0 | 4.0 | 0.00 | 0.00 | 0.00 | 23 | 1011.6 |
| 20260506195002 | 81 | 309 | 1.0 | 5.0 | 0.00 | 0.00 | 0.00 | 23 | 1011.6 |
| 20260506194503 | 80 | 346 | 2.0 | 5.0 | 0.00 | 0.00 | 0.00 | 22 | 1011.7 |
| 20260506194003 | 81 | 271 | 3.0 | 7.0 | 0.00 | 0.00 | 0.00 | 22 | 1011.8 |
| 20260506193501 | 81 | 355 | 3.0 | 7.0 | 0.00 | 0.00 | 0.00 | 23 | 1011.8 |
| 20260506193005 | 81 | 256 | 2.0 | 7.0 | 0.00 | 0.00 | 0.00 | 23 | 1011.8 |
| 20260506192506 | 80 | 136 | 1.0 | 6.0 | 0.00 | 0.00 | 0.00 | 23 | 1011.8 |
| 20260506192001 | 80 | 265 | 1.0 | 5.0 | 0.00 | 0.00 | 0.00 | 23 | 1011.9 |
| 20260506191458 | 80 | 209 | 1.0 | 6.0 | 0.00 | 0.00 | 0.00 | 23 | 1012.0 |
| 20260506190958 | 80 | 302 | 2.0 | 6.0 | 0.00 | 0.00 | 0.00 | 23 | 1012.0 |
| 20260506190434 | 80 | 297 | 2.0 | 7.0 | 0.00 | 0.00 | 0.00 | 24 | 1012.0 |
| 20260506185935 | 80 | 224 | 2.0 | 7.0 | 0.00 | 0.00 | 0.00 | 23 | 1012.0 |
| 20260506185436 | 80 | 325 | 2.0 | 5.0 | 0.00 | 0.00 | 0.00 | 25 | 1012.1 |
| 20260506184931 | 79 | 26 | 2.0 | 5.0 | 0.00 | 0.00 | 0.00 | 26 | 1012.1 |
| 20260506184431 | 79 | 308 | 2.0 | 5.0 | 0.00 | 0.00 | 0.00 | 25 | 1012.3 |
| 20260506183931 | 79 | 224 | 2.0 | 5.0 | 0.00 | 0.00 | 0.00 | 26 | 1012.3 |
| 20260506183434 | 79 | 332 | 2.0 | 7.0 | 0.00 | 0.00 | 0.00 | 27 | 1012.4 |
| 20260506182929 | 79 | 252 | 2.0 | 7.0 | 0.00 | 0.00 | 0.00 | 27 | 1012.5 |
| 20260506182432 | 79 | 202 | 2.0 | 6.0 | 0.00 | 0.00 | 0.00 | 26 | 1012.5 |
| 20260506181931 | 79 | 346 | 2.0 | 5.0 | 0.00 | 0.00 | 0.00 | 26 | 1012.6 |
| 20260506181429 | 79 | 313 | 1.0 | 5.0 | 0.00 | 0.00 | 0.00 | 27 | 1012.7 |
| 20260506180929 | 78 | 221 | 1.0 | 4.0 | 0.00 | 0.00 | 0.00 | 28 | 1012.7 |
| 20260506180433 | 77 | 303 | 1.0 | 4.0 | 0.00 | 0.00 | 0.00 | 28 | 1012.7 |
| 20260506180159 | 77 | 302 | 1.0 | 5.0 | 0.00 | 0.00 | 0.00 | 29 | 1012.8 |
| 20260506175431 | 77 | 341 | 1.0 | 5.0 | 0.00 | 0.00 | 0.00 | 27 | 1012.8 |
| 20260506174930 | 78 | 260 | 1.0 | 6.0 | 0.00 | 0.00 | 0.00 | 29 | 1012.9 |
| 20260506174430 | 77 | 261 | 1.0 | 6.0 | 0.00 | 0.00 | 0.00 | 29 | 1012.9 |
| 20260506173928 | 77 | 241 | 1.0 | 6.0 | 0.00 | 0.00 | 0.00 | 29 | 1012.9 |
| 20260506173428 | 77 | 254 | 1.0 | 4.0 | 0.00 | 0.00 | 0.00 | 29 | 1013.0 |
| 20260506173201 | 75 | 34 | 1.0 | 5.0 | 0.00 | 0.00 | 0.00 | 31 | 1013.0 |
| 20260506172431 | 75 | 22 | 1.0 | 5.0 | 0.00 | 0.00 | 0.00 | 30 | 1013.0 |
| 20260506171922 | 76 | 327 | 1.0 | 5.0 | 0.00 | 0.00 | 0.00 | 31 | 1013.0 |
| 20260506171643 | 75 | 246 | 1.0 | 4.0 | 0.00 | 0.00 | 0.00 | 30 | 1012.9 |
| 20260506170919 | 74 | 266 | 0.0 | 3.0 | 0.00 | 0.00 | 0.00 | 31 | 1012.9 |
| 20260506170410 | 74 | 236 | 0.0 | 3.0 | 0.00 | 0.00 | 0.00 | 31 | 1012.9 |
| 20260506165913 | 74 | 243 | 1.0 | 5.0 | 0.00 | 0.00 | 0.00 | 31 | 1013.0 |
| 20260506165406 | 73 | 243 | 1.0 | 5.0 | 0.00 | 0.00 | 0.00 | 32 | 1013.0 |
| 20260506164909 | 73 | 355 | 1.0 | 5.0 | 0.00 | 0.00 | 0.00 | 31 | 1013.0 |
| 20260506164643 | 73 | 198 | 2.0 | 7.0 | 0.00 | 0.00 | 0.00 | 32 | 1012.8 |
| 20260506164405 | 73 | 253 | 1.0 | 3.0 | 0.00 | 0.00 | 0.00 | 31 | 1012.9 |
| 20260506163401 | 73 | 202 | 2.0 | 7.0 | 0.00 | 0.00 | 0.00 | 32 | 1012.8 |
| 20260506162904 | 75 | 232 | 1.0 | 6.0 | 0.00 | 0.00 | 0.00 | 30 | 1012.8 |
| 20260506162402 | 75 | 168 | 1.0 | 3.0 | 0.00 | 0.00 | 0.00 | 31 | 1012.8 |
| 20260506161907 | 75 | 219 | 1.0 | 4.0 | 0.00 | 0.00 | 0.00 | 31 | 1012.7 |
| 20260506161401 | 74 | 211 | 1.0 | 6.0 | 0.00 | 0.00 | 0.00 | 31 | 1012.7 |
| 20260506160903 | 74 | 162 | 1.0 | 6.0 | 0.00 | 0.00 | 0.00 | 31 | 1012.7 |
| 20260506160401 | 74 | 160 | 0.0 | 5.0 | 0.00 | 0.00 | 0.00 | 31 | 1012.6 |
| 20260506155910 | 73 | 159 | 0.0 | 0.0 | 0.00 | 0.00 | 0.00 | 32 | 1012.7 |
| 20260506155406 | 73 | 159 | 0.0 | 1.0 | 0.00 | 0.00 | 0.00 | 32 | 1012.7 |
| 20260506154910 | 72 | 160 | 0.0 | 1.0 | 0.00 | 0.00 | 0.00 | 32 | 1012.7 |
| 20260506154405 | 72 | 180 | 0.0 | 3.0 | 0.00 | 0.00 | 0.00 | 33 | 1012.7 |
| 20260506153910 | 71 | 191 | 1.0 | 3.0 | 0.00 | 0.00 | 0.00 | 34 | 1012.8 |
| 20260506153401 | 71 | 191 | 1.0 | 3.0 | 0.00 | 0.00 | 0.00 | 35 | 1012.8 |
| 20260506152904 | 70 | 191 | 0.0 | 3.0 | 0.00 | 0.00 | 0.00 | 35 | 1012.7 |
| 20260506152358 | 70 | 190 | 0.0 | 2.0 | 0.00 | 0.00 | 0.00 | 35 | 1012.8 |
| 20260506151857 | 69 | 169 | 1.0 | 4.0 | 0.00 | 0.00 | 0.00 | 36 | 1012.9 |
| 20260506151359 | 69 | 215 | 1.0 | 4.0 | 0.00 | 0.00 | 0.00 | 37 | 1012.9 |
| 20260506150835 | 68 | 214 | 1.0 | 4.0 | 0.00 | 0.00 | 0.00 | 38 | 1012.9 |
| 20260506150330 | 67 | 214 | 1.0 | 4.0 | 0.00 | 0.00 | 0.00 | 39 | 1012.9 |
| 20260506145833 | 66 | 209 | 0.0 | 4.0 | 0.00 | 0.00 | 0.00 | 40 | 1012.9 |
| 20260506145332 | 65 | 209 | 0.0 | 3.0 | 0.00 | 0.00 | 0.00 | 41 | 1012.9 |
| 20260506144833 | 65 | 209 | 1.0 | 3.0 | 0.00 | 0.00 | 0.00 | 42 | 1012.9 |
| 20260506144331 | 64 | 209 | 0.0 | 3.0 | 0.00 | 0.00 | 0.00 | 44 | 1012.9 |
| 20260506143831 | 63 | 209 | 0.0 | 4.0 | 0.00 | 0.00 | 0.00 | 44 | 1012.9 |
| 20260506143334 | 62 | 209 | 1.0 | 4.0 | 0.00 | 0.00 | 0.00 | 44 | 1012.8 |
| 20260506142831 | 62 | 213 | 1.0 | 3.0 | 0.00 | 0.00 | 0.00 | 46 | 1012.7 |
| 20260506142601 | 61 | 213 | 1.0 | 4.0 | 0.00 | 0.00 | 0.00 | 47 | 1012.6 |
| 20260506141829 | 60 | 245 | 1.0 | 4.0 | 0.00 | 0.00 | 0.00 | 48 | 1012.5 |
| 20260506141335 | 59 | 270 | 1.0 | 3.0 | 0.00 | 0.00 | 0.00 | 50 | 1012.4 |
| 20260506140829 | 59 | 270 | 0.0 | 3.0 | 0.00 | 0.00 | 0.00 | 52 | 1012.4 |
| 20260506140330 | 58 | 271 | 0.0 | 2.0 | 0.00 | 0.00 | 0.00 | 54 | 1012.3 |
| 20260506135830 | 57 | 271 | 0.0 | 0.0 | 0.00 | 0.00 | 0.00 | 57 | 1012.3 |
| 20260506135333 | 56 | 271 | 0.0 | 0.0 | 0.00 | 0.00 | 0.00 | 60 | 1012.2 |
| 20260506135103 | 56 | 271 | 0.0 | 1.0 | 0.00 | 0.00 | 0.00 | 60 | 1012.2 |